Fortuna, CA

10:48 PM PDT on July 21, 2017 (GMT -0700)
Rohnerville

Weather History for KFOT - December, 2012

Change the Weather History Date:

Tuesday, December 4, 2012

  Actual Average (KEKA) Record (KEKA)
Temperature  
Mean Temperature 52 °F -  
Max Temperature 57 °F 57 °F 69 °F (1979)
Min Temperature 48 °F 42 °F 28 °F (2013)
Degree Days  
Heating Degree Days 12    
Growing Degree Days 2 (Base 50)    
Moisture  
Dew Point 52 °F    
Average Humidity 95    
Maximum Humidity 100    
Minimum Humidity 58    
Precipitation  
Precipitation 0.40 in - - ()
Sea Level Pressure  
Sea Level Pressure 30.05 in    
Wind  
Wind Speed 24 mph ()    
Max Wind Speed 37 mph    
Max Gust Speed 44 mph    
Visibility 8.3 miles    
Events      
Averages and records for this station are not official NWS values.
T = Trace of Precipitation, MM = Missing Value Source: Averaged Metar Reports

Daily Weather History Graph

Daily Weather History Graph

Search for Another Location

Airport or City:

Trip Planner

Search our weather history database for the weather conditions in past years. The results will help you decide how hot, cold, wet, or windy it might be!

Date:

Astronomy

Dec. 04, 2012 Rise Set
Actual Time 7:24 AM PST 4:49 PM PST
Civil Twilight 6:53 AM PST 5:20 PM PST
Nautical Twilight 6:19 AM PST 5:54 PM PST
Astronomical Twilight 5:46 AM PST 6:27 PM PST
Moon 10:44 PM PST (12/4) 11:20 AM PST (12/4)
Length of Visible Light 10h 26m
Length of Day
9h 25m
Waning Gibbous, 68% of the Moon is Illuminated
Dec 4
Waning Gibbous
Dec 6
Last Quarter
Dec 13
New
Dec 19
First Quarter
Dec 28
Full

Hourly Weather History & Observations

Time (PST) Temp. Dew Point Humidity Pressure Visibility Wind Dir Wind Speed Gust Speed Precip Events Conditions
12:15 AM 53.6 °F 39.2 °F 58% 30.07 in 10.0 mi SE 27.6 mph 36.8 mph N/A   Overcast
12:35 AM 51.8 °F 42.8 °F 71% 30.08 in 10.0 mi SE 28.8 mph 38.0 mph N/A   Overcast
12:55 AM 50.0 °F 44.6 °F 82% 30.07 in 10.0 mi SE 31.1 mph 39.1 mph N/A   Overcast
1:15 AM 50.0 °F 44.6 °F 82% 30.07 in 10.0 mi SE 33.4 mph 38.0 mph N/A   Overcast
1:35 AM 50.0 °F 44.6 °F 82% 30.07 in 10.0 mi SE 31.1 mph 41.4 mph N/A   Overcast
1:55 AM 48.2 °F 44.6 °F 87% 30.07 in 10.0 mi SE 28.8 mph 38.0 mph N/A   Overcast
2:15 AM 50.0 °F 44.6 °F 82% 30.07 in 10.0 mi ESE 29.9 mph 42.6 mph N/A   Overcast
2:35 AM 50.0 °F 44.6 °F 82% 30.07 in 10.0 mi SE 31.1 mph 40.3 mph N/A   Overcast
2:55 AM 50.0 °F 44.6 °F 82% 30.06 in 10.0 mi ESE 36.8 mph 43.7 mph N/A   Overcast
3:15 AM 50.0 °F 46.4 °F 87% 30.07 in 10.0 mi SE 28.8 mph 39.1 mph N/A   Overcast
3:35 AM 50.0 °F 44.6 °F 82% 30.06 in 10.0 mi ESE 35.7 mph 41.4 mph N/A   Overcast
3:55 AM 50.0 °F 44.6 °F 82% 30.06 in 10.0 mi SE 29.9 mph 40.3 mph N/A   Overcast
4:15 AM 50.0 °F 46.4 °F 87% 30.05 in 10.0 mi ESE 33.4 mph 40.3 mph N/A   Overcast
4:35 AM 50.0 °F 46.4 °F 87% 30.05 in 10.0 mi ESE 32.2 mph 38.0 mph N/A   Overcast
4:55 AM 50.0 °F 46.4 °F 87% 30.06 in 10.0 mi ESE 28.8 mph 36.8 mph N/A   Overcast
5:15 AM 50.0 °F 48.2 °F 94% 30.05 in 8.0 mi ESE 32.2 mph 36.8 mph N/A   Overcast
5:35 AM 50.0 °F 48.2 °F 94% 30.05 in 10.0 mi SE 27.6 mph 38.0 mph N/A   Overcast
5:55 AM 50.0 °F 48.2 °F 94% 30.04 in 8.0 mi SE 33.4 mph 38.0 mph 0.01 in   Overcast
6:15 AM 50.0 °F 48.2 °F 94% 30.04 in 10.0 mi ESE 28.8 mph 36.8 mph N/A   Overcast
6:35 AM 50.0 °F 48.2 °F 94% 30.05 in 10.0 mi SE 25.3 mph 35.7 mph N/A   Overcast
6:55 AM 51.8 °F 48.2 °F 88% 30.06 in 10.0 mi SE 26.5 mph 33.4 mph N/A   Overcast
7:15 AM 50.0 °F 50.0 °F 100% 30.05 in 7.0 mi SE 31.1 mph 38.0 mph 0.02 in   Mostly Cloudy
7:35 AM 51.8 °F 50.0 °F 94% 30.06 in 7.0 mi ESE 26.5 mph 33.4 mph 0.02 in   Mostly Cloudy
7:55 AM 51.8 °F 50.0 °F 94% 30.04 in 9.0 mi SE 27.6 mph 32.2 mph 0.03 in   Mostly Cloudy
8:15 AM 53.6 °F 51.8 °F 94% 30.04 in 10.0 mi ESE 26.5 mph 32.2 mph N/A   Mostly Cloudy
8:35 AM 53.6 °F 51.8 °F 94% 30.03 in 8.0 mi SE 28.8 mph 33.4 mph N/A   Overcast
8:55 AM 53.6 °F 51.8 °F 94% 30.04 in 8.0 mi SE 27.6 mph 33.4 mph N/A   Scattered Clouds
9:15 AM 53.6 °F 51.8 °F 94% 30.05 in 6.0 mi SE 25.3 mph 31.1 mph 0.01 in   Scattered Clouds
9:35 AM 53.6 °F 51.8 °F 94% 30.04 in 6.0 mi SE 28.8 mph 34.5 mph 0.02 in   Partly Cloudy
9:55 AM 53.6 °F 53.6 °F 100% 30.07 in 3.0 mi SE 25.3 mph - 0.04 in   Mostly Cloudy
10:15 AM 53.6 °F 53.6 °F 100% 30.08 in 7.0 mi SE 25.3 mph 28.8 mph N/A   Mostly Cloudy
10:35 AM 53.6 °F 53.6 °F 100% 30.08 in 7.0 mi SE 24.2 mph 32.2 mph N/A   Mostly Cloudy
10:55 AM 53.6 °F 53.6 °F 100% 30.08 in 5.0 mi SE 24.2 mph - 0.02 in   Partly Cloudy
11:15 AM 55.4 °F 53.6 °F 94% 30.08 in 9.0 mi SE 21.9 mph 26.5 mph N/A   Scattered Clouds
11:35 AM 55.4 °F 53.6 °F 94% 30.07 in 7.0 mi SE 21.9 mph 28.8 mph N/A   Scattered Clouds
11:55 AM 55.4 °F 55.4 °F 100% 30.07 in 7.0 mi SE 18.4 mph 26.5 mph 0.01 in   Mostly Cloudy
12:15 PM 55.4 °F 55.4 °F 100% 30.06 in 5.0 mi SE 18.4 mph - 0.01 in   Scattered Clouds
12:35 PM 55.4 °F 55.4 °F 100% 30.07 in 3.0 mi SE 16.1 mph 24.2 mph 0.02 in   Scattered Clouds
12:55 PM 55.4 °F 55.4 °F 100% 30.06 in 4.0 mi ESE 20.7 mph - 0.06 in   Mostly Cloudy
1:15 PM 55.4 °F 55.4 °F 100% 30.06 in 3.0 mi SE 18.4 mph 21.9 mph 0.04 in   Partly Cloudy
1:35 PM 55.4 °F 55.4 °F 100% 30.05 in 5.0 mi ESE 18.4 mph - 0.06 in   Partly Cloudy
1:55 PM 55.4 °F 55.4 °F 100% 30.04 in 3.0 mi ESE 18.4 mph - 0.10 in   Scattered Clouds
2:15 PM 55.4 °F 55.4 °F 100% 30.03 in 5.0 mi SE 18.4 mph - 0.03 in   Mostly Cloudy
2:35 PM 55.4 °F 55.4 °F 100% 30.03 in 5.0 mi ESE 18.4 mph - 0.05 in   Partly Cloudy
2:55 PM 55.4 °F 55.4 °F 100% 30.03 in 6.0 mi SE 17.3 mph - 0.07 in   Mostly Cloudy
3:15 PM 55.4 °F 55.4 °F 100% 30.03 in 4.0 mi ESE 17.3 mph - 0.01 in   Mostly Cloudy
3:35 PM 55.4 °F 55.4 °F 100% 30.03 in 5.0 mi ESE 18.4 mph - 0.02 in   Mostly Cloudy
3:55 PM 55.4 °F 55.4 °F 100% 30.03 in 7.0 mi SE 17.3 mph - 0.03 in   Overcast
4:15 PM 55.4 °F 55.4 °F 100% 30.03 in 9.0 mi ESE 16.1 mph - N/A   Overcast
4:35 PM 55.4 °F 55.4 °F 100% 30.03 in 10.0 mi ESE 18.4 mph - 0.01 in   Overcast
4:55 PM 55.4 °F 55.4 °F 100% 30.03 in 7.0 mi ESE 17.3 mph - 0.01 in   Overcast
5:15 PM 55.4 °F 55.4 °F 100% 30.03 in 10.0 mi ESE 18.4 mph - N/A   Overcast
5:35 PM 55.4 °F 55.4 °F 100% 30.03 in 10.0 mi SE 17.3 mph - N/A   Overcast
5:55 PM 55.4 °F 55.4 °F 100% 30.02 in 10.0 mi SE 13.8 mph - N/A   Overcast
6:15 PM 57.2 °F 57.2 °F 100% 30.03 in 10.0 mi ESE 15.0 mph - 0.01 in   Overcast
6:35 PM 57.2 °F 57.2 °F 100% 30.02 in 8.0 mi ESE 17.3 mph - 0.02 in   Overcast
6:55 PM 57.2 °F 57.2 °F 100% 30.02 in 10.0 mi ESE 17.3 mph - 0.02 in   Overcast
7:15 PM 57.2 °F 57.2 °F 100% 30.02 in 10.0 mi SE 15.0 mph - N/A   Overcast
7:35 PM 57.2 °F 57.2 °F 100% 30.03 in 10.0 mi SE 13.8 mph - N/A   Overcast
7:55 PM 57.2 °F 57.2 °F 100% 30.03 in 10.0 mi SE 12.7 mph 18.4 mph N/A   Overcast
8:15 PM 57.2 °F 57.2 °F 100% 30.03 in 10.0 mi ESE 17.3 mph - N/A   Overcast
8:35 PM 57.2 °F 57.2 °F 100% 30.03 in 10.0 mi ESE 13.8 mph 19.6 mph N/A   Overcast
8:55 PM 57.2 °F 57.2 °F 100% 30.03 in 9.0 mi ESE 16.1 mph 19.6 mph N/A   Overcast
9:15 PM 57.2 °F 57.2 °F 100% 30.03 in 10.0 mi ESE 18.4 mph - N/A   Overcast
9:35 PM 57.2 °F 57.2 °F 100% 30.04 in 10.0 mi SE 16.1 mph - N/A   Overcast
9:55 PM 57.2 °F 57.2 °F 100% 30.04 in 10.0 mi ESE 17.3 mph - N/A   Overcast
10:15 PM 57.2 °F 57.2 °F 100% 30.04 in 10.0 mi ESE 12.7 mph 19.6 mph N/A   Overcast
10:35 PM 57.2 °F 57.2 °F 100% 30.05 in 10.0 mi ESE 13.8 mph 19.6 mph N/A   Overcast
10:55 PM 55.4 °F 55.4 °F 100% 30.05 in 5.0 mi ESE 17.3 mph - N/A   Overcast
11:15 PM 55.4 °F 55.4 °F 100% 30.05 in 10.0 mi ESE 16.1 mph - N/A   Overcast
11:35 PM 55.4 °F 55.4 °F 100% 30.05 in 10.0 mi ESE 15.0 mph - N/A   Mostly Cloudy
11:55 PM 55.4 °F 55.4 °F 100% 30.05 in 10.0 mi ESE 16.1 mph - N/A   Overcast